Location: York
(31.8935°S, 116.7682°E)
Time: 17:18:16
(UTC+08:00)

deb Explorer IX - Pass Details

Date: 27 September 2022
Orbit: 533 x 1057 km, 38.8° (Epoch: 30 November)

Event Time Altitude Azimuth Distance (km) Brightness Sun altitude
Rises 03:59:18 0° 265° (W) 2,684 - -25.2°
Reaches altitude 10° 04:02:30 10° 292° (WNW) 1,809 - -24.6°
Maximum altitude 04:04:32 13° 322° (NW) 1,621 - -24.2°
Drops below altitude 10° 04:06:38 10° 352° (N) 1,867 - -23.8°
Exits shadow 04:08:48 - 12° (NNE) 2,443 ? -23.3°
Sets 04:10:03 0° 19° (NNE) 2,843 ? -23.1°
